Weather observations for the past three days for
University of Illinois - Willard
Metric (Imperial)
Date Time (cdt) Wind (kph) Vis. (km) Weather Sky Cond. Temperature (ºC) Relative Humidity Wind Chill (°C) Heat Index (°C) Pressure Precipitation (cm)
Air Dwpt 6 hour altimeter (cm) sea level (mb) 1 hr 3 hr 6 hr
Max. Min.
08 17:53 SW 24 G 31 16.09 Mostly Cloudy FEW028 BKN090 13.9 12.8 93% 75.67 1008.7
08 16:53 SW 24 G 37 16.09 Overcast BKN070 OVC084 13.9 12.2 90% 75.67 0.0
08 15:53 S 9 16.09 Overcast SCT055 OVC075 15 12.8 87% 75.67 0.0
08 14:53 NW 9 16.09 Light Rain OVC080 15 12.2 83% 75.74 0.0
08 13:53 W 13 12.87 Light Rain OVC070 15 12.2 83% 75.79 0.0
08 12:53 W 20 16.09 Light Rain BKN090 17.2 11.1 68% 75.79 0.0
08 11:53 W 24 G 33 16.09 Partly Cloudy SCT110 17.8 11.1 65% 75.82 0.0
08 10:53 W 37 G 43 16.09 Partly Cloudy and Breezy SCT120 17.8 10 60% 75.84 1010.6
08 09:53 W 31 G 46 16.09 Fair CLR 17.2 11.1 68% 75.87 1011.0
08 08:53 SW 19 G 33 16.09 Partly Cloudy SCT070 SCT085 13.9 10 78% 75.9 1011.5
08 07:53 S 15 16.09 Overcast OVC080 11.1 7.8 80% 75.9 1011.5
08 06:53 W 6 16.09 Mostly Cloudy BKN080 10 7.2 83% 75.92 1011.8
08 05:53 S 17 16.09 Mostly Cloudy BKN065 8.9 7.2 89% 7 75.87 1011.0
07 22:53 S 15 16.09 Mostly Cloudy SCT075 BKN095 11.1 8.9 86% 76 1012.8
07 21:53 S 11 16.09 Mostly Cloudy BKN090 8.9 7.8 93% 7 76 1012.9
07 20:53 S 13 16.09 Partly Cloudy SCT043 8.9 7.8 93% 7 0 0.0
07 19:53 SW 9 16.09 Partly Cloudy SCT043 SCT060 10 8.9 93% 9 75.97 1012.6
07 18:53 SW 9 16.09 Mostly Cloudy SCT043 SCT060 BKN100 12.8 7.2 69% 75.97 1012.6
07 17:53 SW 13 16.09 Partly Cloudy SCT060 15 7.2 60% 75.97 1012.6
07 16:53 NW 13 16.09 Overcast OVC060 15 7.2 60% 76 0.0
07 15:53 N 30 G 54 16.09 Light Rain SCT041 BKN055 OVC065 13.9 7.2 64% 0 0.0
07 14:53 SW 26 G 44 16.09 Overcast SCT070 OVC080 17.2 6.1 48% 76 0.0
07 13:53 SW 30 G 46 16.09 Mostly Cloudy SCT070 BKN100 16.1 5 48% 76.05 0.0
07 12:53 Calm 16.09 Mostly Cloudy BKN100 16 4 45% 0 0.0
07 11:53 SW 26 G 35 16.09 Fair CLR 15 3.9 48% 76.2 0.0
07 10:53 SW 22 G 33 16.09 Fair CLR 13.9 2.8 47% 76.2 1015.7
07 09:53 SW 22 16.09 Fair CLR 12.2 2.8 53% 76.25 1016.9
07 08:53 SW 15 16.09 Fair CLR 11.1 2.8 57% 76.28 1017.2
07 07:53 SW 7 16.09 Fair CLR 7.8 3.9 77% 7 76.25 1016.9
07 06:53 S 6 16.09 Fair CLR 5 2.8 86% 76.23 1016.5
07 05:53 SW 6 16.09 Fair CLR 3.9 2.2 89% 76.23 1016.4
06 22:53 N 9 16.09 Fair CLR 7.2 1.1 66% 6 76.28 0.0
06 21:53 N 15 16.09 Fair CLR 7.8 2.2 68% 6 76.28 0.0
06 20:53 NW 9 16.09 Fair CLR 7.8 2.8 71% 6 76.2 1016.1
06 19:53 NW 17 16.09 A Few Clouds FEW070 11.1 2.8 57% 76.17 1015.7
06 18:53 NW 17 G 26 16.09 Partly Cloudy SCT070 12.8 2.2 49% 76.15 1015.3
06 17:53 NW 19 G 35 16.09 Mostly Cloudy BKN070 13.9 2.2 45% 76.12 1015.2
06 16:53 NW 22 G 33 16.09 Mostly Cloudy BKN070 13.9 2.8 47% 76.15 0.0
06 14:53 NW 19 16.09 Mostly Cloudy BKN060 13.9 2.8 47% 76.12 0.0
06 13:53 W 13 16.09 Mostly Cloudy BKN060 13.9 3.9 51% 76.15 0.0
06 12:53 NW 11 16.09 Partly Cloudy SCT120 12.8 3.9 55% 76.17 0.0
06 11:53 W 7 16.09 Partly Cloudy SCT120 11.1 6.1 72% 76.17 0.0
06 10:53 Calm 16.09 Mostly Cloudy SCT100 BKN120 11 6 72% 76.12 0.0
06 08:53 NW 7 16.09 Overcast OVC080 8.9 5 77% 8 76.1 1014.9
06 07:53 NW 6 16.09 Fair CLR 7.8 6.1 89% 76.05 1014.2
06 06:53 NW 7 16.09 Fair CLR 7.2 7.2 100% 6 75.97 1013.1
06 05:53 W 9 16.09 Fair CLR 6.1 6.1 100% 4 75.92 1012.5
05 21:53 W 7 16.09 Light Rain OVC090 8.9 8.9 100% 8 75.84 1011.3
05 20:53 NW 9 16.09 Light Rain OVC090 8.9 7.8 93% 8 75.77 1010.4
05 19:53 Calm 16.09 Partly Cloudy SCT050 8.9 7.8 93% 75.74 1009.9
05 18:53 N 9 16.09 Light Rain SCT050 8.9 6.1 83% 8 75.69 1009.2
Date Time (cdt) Wind (kph) Vis. (km) Weather Sky Cond. Air Dwpt Max. Min. Relative Humidity Wind Chill (°C) Heat Index (°C) altimeter (cm) sea level (mb) 1 hr 3 hr 6 hr
6 hour
Temperature (ºC) Pressure Precipitation (cm)